COSMOS 2499 DEB, 49932

Orbit data source: Space-Track

COSMOS 2499 DEB, 49932 is space debris in LEO originally from a launch on Fri, 23 May 2014 UTC launched from the Plesetsk Missile And Space Complex (PKMTR). Debris objects in space refer to the collection of defunct objects orbiting the Earth. Examples of debris include non-operational satellites, rocket bodies, and fragments generated from explosions, collisions, or faulty payload assembly.

Loading next visibility...
Identifier
49932, 2014-028P
Orbit
LEO
Country
Flag of CISCIS
Related business
Manufacturer
TsNIIKhM
Mission
Spacecraft
Bus & Motor
Unknown
Mass
Unknown
Launch date (UTC)
2014-05-23 (12 years ago)
Launch vehicle
Unknown
Launch site
Plesetsk Missile And Space Complex (PKMTR)
Object type
Payload
Rocket body
Debris
Shape & HBR
Unknown shape, 0.1 m
Radar Cross Section
Medium (>0.1 m² and <1 m²)

Expand to show TLE details & history
Last TLE update: 4 days ago

TLE from 4 days ago
0 COSMOS 2499 DEB
1 49932U 14028P   26169.91074723  .00006748  00000-0  15519-1 0  9996
2 49932  82.5759 237.1897 0322567 242.7702 114.0211 13.07897446135492
Epoch: 2026-06-18T21:51Z
TLE epoch observation values (Epoch: 2026-06-18T21:51:28.560Z)
Latitude
-0.00011°
Longitude
2.17339°
Altitude
1,340.51 km
Speed
7.137 km/s
True Right ascension
15h 48m 45s
True Declination
0° 00' 00"
Sunlit
Object was in full shadow at epoch
Visualization orbit readout
Latitude
Unknown
Longitude
Unknown
Altitude
Unknown
Speed
Unknown
Apparent Right ascension
Unknown
Apparent Declination
Unknown
Sunlit
N/A
Visualization observer readout
Local Sidereal Time
21:29:45
Azimuth
Unknown
Elevation
Unknown
Doppler factor
Unknown
Orbital elements
Apogee altitude
1,473.922 km
Perigee altitude
983.189 km
Semi-major axis
7,606.692 km
Eccentricity
0.03226
Inclination
82.5759°
RAAN
237.1897°
Arg. of periapsis
242.7702°
True anomaly
117.34092°
Mean anomaly
114.0211°
Eccentric anomaly
115.68663°
Mean motion
3.27152 °/min
Orbital period
110.04 mins
BSTAR
0.015519
Loading maneuver chart data...
Computing Atmospheric mass density...
Loading historical data...
Loading historical data...
Loading historical data...
Loading historical data...
Loading historical data...
Loading historical data...
Loading historical data...

Documentation

Showing up to 5 results
|